Location: Creola (historical)
(38.1334°N, 100.5024°W)
Time: 00:43:15
(UTC+00:00)

Cosmos 304 Rocket - Pass Details

Date: 18 October 2021
Orbit: 678 x 688 km, 74.0° (Epoch: 28 November)

Event Time Altitude Azimuth Distance (km) Brightness Sun altitude
Rises 12:23:23 0° 341° (NNW) 3,058 6.8 -6.8°
Reaches altitude 10° 12:25:41 10° 341° (NNW) 2,140 6.1 -6.3°
Maximum altitude 12:30:31 86° 252° (WSW) 694 3.8 -5.4°
Drops below altitude 10° 12:35:19 10° 165° (SSE) 2,128 6.7 -4.4°
Sets 12:37:37 0° 165° (SSE) 3,041 7.5 -4.0°
